Date,TemperatureHighF,TemperatureAvgF,TemperatureLowF,DewpointHighF,DewpointAvgF,DewpointLowF,HumidityHigh,HumidityAvg,HumidityLow,PressureMaxIn,PressureMinIn,WindSpeedMaxMPH,WindSpeedAvgMPH,GustSpeedMaxMPH,PrecipitationSumIn
2013-2-1,20,17,3,17,10,-2,89,73,66,30.35,30.21,22,14,33,0.00
2013-2-2,27,20,11,24,16,8,92,87,79,30.23,30.03,18,10,23,0.00
2013-2-3,27,21,13,21,17,9,93,84,68,30.11,29.99,26,10,31,0.00
2013-2-4,34,28,19,29,23,17,91,84,76,30.04,29.81,17,8,22,0.00
2013-2-5,37,28,18,32,25,16,93,89,82,30.10,29.82,21,8,24,0.00
2013-2-6,43,34,28,34,30,24,91,84,70,30.22,30.08,12,6,16,0.00
2013-2-7,38,34,32,36,32,30,95,92,89,30.08,29.83,20,8,28,0.36
2013-2-8,32,28,24,30,25,21,92,89,86,30.39,29.97,22,11,30,0.00
2013-2-9,34,31,27,31,27,24,90,85,82,30.39,30.05,14,9,19,0.00
2013-2-10,49,41,34,46,38,30,94,90,75,30.06,29.52,33,19,40,0.41
2013-2-11,44,34,30,37,28,25,85,78,71,30.08,29.58,34,22,44,0.00
2013-2-12,36,30,27,29,26,24,93,86,75,30.14,29.93,17,6,23,0.00
2013-2-13,45,34,25,37,30,23,93,85,67,29.93,29.74,16,7,19,0.00
2013-2-14,40,36,33,34,32,30,92,86,75,29.99,29.70,24,12,33,0.00
2013-2-15,33,29,22,31,22,15,93,77,56,30.21,29.99,19,13,25,0.00
2013-2-16,26,19,13,17,12,7,81,74,63,30.22,30.13,19,10,24,0.00
2013-2-17,34,23,10,24,15,6,86,73,58,30.24,29.97,19,7,24,0.00
2013-2-18,55,40,25,48,35,22,94,81,69,29.97,29.44,35,22,45,0.20
2013-2-19,25,19,12,22,13,8,88,79,69,30.25,29.68,36,26,50,0.00
2013-2-20,23,15,6,17,10,2,90,79,70,30.41,30.25,15,9,21,0.00
2013-2-21,29,23,14,25,19,11,93,87,79,30.39,29.89,29,13,35,0.00
2013-2-22,33,30,24,31,27,21,95,91,81,29.97,29.79,24,13,29,0.01
2013-2-23,28,24,18,23,20,16,91,84,76,30.01,29.95,17,8,21,0.00
2013-2-24,39,27,16,30,22,13,91,83,67,30.15,30.00,7,2,7,0.00
2013-2-25,42,34,25,35,30,23,92,84,70,30.15,29.85,22,9,25,0.00
2013-2-26,34,33,32,31,30,28,95,92,80,29.86,29.44,32,14,41,0.16
2013-2-27,32,31,30,31,29,28,95,94,93,29.75,29.53,19,13,22,0.00
2013-2-28,34,32,30,32,30,27,95,93,87,30.06,29.75,20,12,24,0.01